Tracking 20621 objects as of 29-Mar-2020
HD Live streaming from Space Station
objects crossing your sky now

POLAR BEAR

Track POLAR BEAR now!
10-day predictions
POLAR BEAR is classified as:


NORAD ID: 17070
Int'l Code: 1986-088A
Perigee: 962.4 km
Apogee: 1,016.7 km
Inclination: 89.5 °
Period: 104.7 minutes
Semi major axis: 7360 km
RCS: 1.4926 m2 (large)
Launch date: November 14, 1986
Source: United States (US)
Launch site: AIR FORCE WESTERN TEST RANGE (AFWTR)
aabbcc
Your satellite tracking list
Your tracking list is empty




NASA's NSSDC Master Catalog

Two Line Element Set (TLE):
1 17070U 86088A   20088.77966507 +.00000041 +00000-0 +31426-4 0  9995
2 17070 089.5225 276.6484 0036835 287.6717 082.4717 13.74797055673292
Source of the keplerian elements: AFSPC